Location: De Har
(53.3413°N, 6.6858°E)
Time: 08:12:32
(UTC+00:00)

Cosmos 1833 Rocket - Pass Details

Date: 22 April 2026
Orbit: 831 x 838 km, 71.0° (Epoch: 15 May)

Event Time Altitude Azimuth Distance (km) Brightness Sun altitude
Exits shadow 01:00:01 20° 267° (W) 1,863 4.2 -21.9°
Maximum altitude 01:03:11 34° 318° (NW) 1,358 3.9 -21.7°
Drops below altitude 10° 01:08:17 10° 23° (NNE) 2,455 6.3 -21.3°
Sets 01:10:58 0° 33° (NNE) 3,393 7.4 -21.2°
